Location: Aubonne
(46.4960°N, 6.3915°E)
Time: 06:02:59
(UTC+00:00)

Daily predictions for brighter satellites

Satellite Brightness Start Highest point End
(mag) Time Altitude Azimuth Time Altitude Azimuth Time Altitude Azimuth
Meteor 2-10 4.2 18:36:46 10° S 18:42:17 84° E 18:48:00 10° NNE
STARLINK-1216 4.5 18:41:17 10° WNW 18:45:15 41° NNE 18:49:12 10° E
FALCON 9 DEB 3.2 18:45:34 10° SW 18:49:01 60° SE 18:52:28 10° ENE
IRIDIUM 106 4.4 18:43:53 10° N 18:49:09 88° E 18:54:22 10° S
NOSS 3-4 (A) 4.0 18:43:04 10° NW 18:50:05 89° SW 18:57:50 10° SE
NOSS 3-4 (C) 4.0 18:43:10 10° NW 18:50:12 90° SW 18:57:56 10° SE
STARLINK-1237 4.4 18:46:16 10° NW 18:50:15 43° NNE 18:54:14 10° E
Cosmos 1656 Rocket 4.1 18:45:38 10° NNW 18:51:15 68° WSW 18:56:46 10° SSE
Abrixas rocket 1.9 18:49:57 10° WNW 18:52:54 83° SSW 18:55:50 10° ESE
SJ-11-01 4.4 18:49:21 10° SSE 18:54:04 85° WSW 18:58:50 10° NNW
STARLINK-1209 2.8 18:51:19 10° WNW 18:54:24 89° S 18:57:26 10° ESE
STARLINK-1234 2.8 18:51:58 10° WNW 18:55:07 88° NE 18:58:09 10° ESE
STARLINK-1202 4.4 18:51:15 10° NW 18:55:16 45° NNE 18:59:15 10° E
STARLINK-1233 3.0 18:52:51 10° WNW 18:56:00 69° NNE 18:58:59 11° ESE
STARLINK-1212 3.0 18:53:18 10° WNW 18:56:26 69° NNE 18:59:24 11° ESE
Cosmos 1703 3.2 18:52:28 10° N 18:56:28 81° E 19:00:26 10° S
STARLINK-1105 3.0 18:53:44 10° WNW 18:56:53 70° NNE 18:59:51 11° ESE
Cosmos 1908 3.2 18:53:06 10° S 18:56:56 66° E 19:00:49 10° NNE
STARLINK-1206 2.9 18:54:14 10° WNW 18:57:21 70° NNE 19:00:15 11° ESE
STARLINK-1247 2.9 18:54:41 10° WNW 18:57:48 71° NNE 19:00:42 12° ESE
SPOT 3 Rocket 4.1 18:53:18 10° SE 18:58:08 40° ENE 19:02:58 10° N
STARLINK-1227 2.9 18:55:06 10° WNW 18:58:14 72° NNE 19:01:08 12° ESE
STARLINK-1218 2.9 18:55:35 10° WNW 18:58:42 72° NNE 19:01:34 12° ESE
MONITOR-E 3.9 18:56:09 10° SSE 18:58:42 54° ENE 19:01:18 10° N
STARLINK-1226 2.9 18:56:01 10° WNW 18:59:10 73° NNE 19:02:00 12° ESE
STARLINK-1254 2.9 18:56:27 10° WNW 18:59:36 73° NNE 19:02:27 12° ESE
STARLINK-1215 2.9 18:56:56 10° WNW 19:00:04 74° NNE 19:02:52 12° ESE
SL-4 R/B 2.5 18:56:56 10° W 19:00:14 47° NNW 19:03:35 10° ENE
STARLINK-1231 2.9 18:57:23 10° WNW 19:00:31 74° NNE 19:03:18 12° ESE
SL-24 R/B - RUBIN 2 4.3 18:55:02 10° SSW 19:00:38 81° SE 19:06:59 10° NE
STARLINK-1232 2.9 18:58:17 10° WNW 19:01:25 76° NNE 19:04:10 13° ESE
Cosmos 1943 4.2 18:56:21 10° SW 19:01:52 52° WNW 19:07:27 10° NNE
STARLINK-1217 2.9 18:58:44 10° WNW 19:01:52 76° NNE 19:04:36 13° ESE
STARLINK-1208 2.9 18:59:09 10° WNW 19:02:18 77° NNE 19:05:03 13° ESE
STARLINK-1229 2.9 18:59:39 10° WNW 19:02:46 77° NNE 19:05:28 13° ESE
STARLINK-1271 2.9 19:00:05 10° WNW 19:03:13 78° NNE 19:05:54 13° ESE
STARLINK-1270 2.8 19:00:32 10° WNW 19:03:40 79° NNE 19:06:19 13° ESE
STARLINK-1154 2.8 19:00:59 10° WNW 19:04:07 79° NNE 19:06:46 14° ESE
Cosmos 1340 Rocket 2.9 19:00:32 10° S 19:04:28 53° E 19:08:23 10° NNE
STARLINK-1197 2.8 19:01:53 10° WNW 19:05:01 80° NNE 19:07:38 14° ESE
STARLINK-1246 4.2 19:01:13 10° NW 19:05:16 49° NNE 19:09:00 12° E
STARLINK-1189 2.8 19:02:20 10° WNW 19:05:28 81° NNE 19:08:04 14° ESE
CZ-2C R/B 3.5 19:01:14 10° NE 19:05:36 27° E 19:09:58 10° SSE
STARLINK-1198 2.8 19:02:48 10° WNW 19:05:56 82° NNE 19:08:30 14° ESE
Cosmos 1328 3.9 19:02:10 10° N 19:06:12 82° W 19:10:11 10° S
STARLINK-1188 2.8 19:03:15 10° WNW 19:06:22 82° NNE 19:08:56 14° ESE
Resurs 1-3 4.4 19:02:37 10° SE 19:06:34 34° ENE 19:10:32 10° N
STARLINK-1235 2.9 19:03:53 10° WNW 19:07:02 79° SSW 19:09:40 14° SE
STARLINK-1187 2.9 19:04:18 10° WNW 19:07:28 88° SSW 19:10:03 14° ESE
STARLINK-1199 2.8 19:05:11 10° WNW 19:08:19 85° NNE 19:10:51 15° ESE
STARLINK-1191 2.8 19:05:38 10° WNW 19:08:47 86° NNE 19:11:17 15° ESE
Cosmos 1461 3.3 19:04:33 10° NW 19:09:07 72° SW 19:13:45 10° SSE
STARLINK-1210 2.8 19:06:05 10° WNW 19:09:14 86° NE 19:11:43 15° ESE
GEOS 3 Rocket 3.8 19:04:09 10° SSE 19:09:17 73° SW 19:14:33 10° NW
STARLINK-1221 2.8 19:06:32 10° WNW 19:09:41 87° NNE 19:12:09 15° ESE
STARLINK-1219 2.8 19:06:59 10° WNW 19:10:09 88° NE 19:12:35 16° ESE
STARLINK-1224 4.1 19:06:13 10° WNW 19:10:17 51° NNE 19:13:49 13° E
RESURS DK-1 4.5 19:08:04 10° N 19:10:21 14° NE 19:12:36 10° ENE
STARLINK-1222 2.8 19:07:26 10° WNW 19:10:36 88° NE 19:13:01 16° ESE
STARLINK-1211 2.8 19:07:53 10° WNW 19:11:02 89° NNE 19:13:27 16° ESE
ARGOS 3.2 19:05:55 10° SSE 19:11:18 85° ENE 19:16:43 10° NNW
STARLINK-1214 2.8 19:08:20 10° WNW 19:11:29 90° NNE 19:13:53 16° ESE
STARLINK-1245 2.8 19:08:49 10° WNW 19:11:57 90° W 19:14:18 16° ESE
STARLINK-1238 2.8 19:09:14 10° WNW 19:12:23 89° WSW 19:14:45 16° ESE
Cosmos 1697 Rocket 4.5 19:09:27 10° N 19:13:12 18° NE 19:16:56 10° E
STARLINK-1205 2.8 19:10:10 10° WNW 19:13:18 88° SW 19:15:36 17° ESE
STARLINK-1204 2.8 19:10:37 10° WNW 19:13:45 87° SSW 19:16:02 17° ESE
STARLINK-1225 4.1 19:11:12 10° WNW 19:15:17 53° NNE 19:18:35 15° E
SeaSat 1 3.0 19:10:26 10° NNE 19:15:19 62° WNW 19:20:11 10° SW
STARLINK-1203 4.0 19:11:35 10° WNW 19:15:45 57° NNE 19:19:04 15° E
MOS 1 4.4 19:11:01 10° SSE 19:16:41 86° WSW 19:22:24 10° NNW
USA 234 4.5 19:12:57 10° E 19:17:00 17° ESE 19:21:01 10° SSE
Cosmos 921 Rocket 2.9 19:13:35 10° NNW 19:17:48 77° ENE 19:22:00 10° SSE
Cosmos 1726 Rocket 3.8 19:13:47 10° SSW 19:18:12 75° W 19:22:40 10° N
Cosmos 2058 Rocket 3.1 19:13:46 10° S 19:18:15 71° E 19:22:44 10° NNE
STARLINK-1230 4.0 19:16:09 10° WNW 19:20:15 56° NNE 19:23:21 17° E
ATLAS 2AS CENTAUR R/B 3.4 19:14:47 10° NW 19:22:09 58° WSW 19:28:53 10° SSE
Cosmos 2058 4.2 19:19:20 10° NNE 19:22:42 23° ENE 19:24:30 18° ESE
STARLINK-29 3.3 19:20:17 10° WSW 19:23:27 66° NNW 19:26:40 10° ENE
Cosmos 2228 3.9 19:21:00 10° SSW 19:25:13 53° WNW 19:29:30 10° N
STARLINK-1243 3.9 19:21:09 10° WNW 19:25:16 59° NNE 19:28:09 18° E
ERBS 2.9 19:23:41 10° NW 19:26:58 44° NNE 19:28:53 21° E
STARLINK-1228 3.6 19:25:19 10° WNW 19:28:01 40° SW 19:29:38 20° SSE
CZ-2C R/B 3.7 19:24:07 10° NNE 19:28:46 62° E 19:33:18 10° S
Cosmos 220 Rocket 4.5 19:25:44 10° N 19:29:55 44° ENE 19:32:35 20° SE
STARLINK-1236 3.8 19:26:06 10° WNW 19:30:14 63° NNE 19:32:54 21° ESE
Cosmos 1140 Rocket 3.5 19:26:07 10° SSW 19:31:18 84° WNW 19:36:30 10° NNE
FREGAT/IRIS 4.1 19:29:13 10° SSW 19:31:44 33° W 19:34:15 10° NNW
H-2A R/B 2.8 19:27:29 10° S 19:32:32 53° W 19:37:28 10° NNW
SL-08 RB Rocket 3.8 19:29:13 10° S 19:33:47 80° WSW 19:38:26 10° NNW
STARLINK-60 4.5 19:30:56 10° W 19:34:01 36° NNW 19:37:06 10° NE
Ariane Rocket 4.2 19:30:47 10° S 19:35:35 43° W 19:40:26 10° NNW
Cosmos 2341 Rocket 4.0 19:29:24 10° N 19:35:49 72° E 19:42:11 10° SSE
Cosmos 1455 4.3 19:39:39 13° ENE 19:39:39 13° ENE 19:40:40 10° NE
STARLINK-1269 3.7 19:36:03 10° WNW 19:40:12 71° NNE 19:42:28 26° ESE
CZ-4C R/B 4.0 19:37:32 10° NNW 19:43:28 31° NNE 19:49:11 14° E
Cosmos 1980 Rocket 4.1 19:40:14 10° N 19:43:49 17° NE 19:46:48 12° ENE
Cosmos 1812 Rocket 4.0 19:41:29 21° SSE 19:43:52 38° E 19:47:54 10° NNE
Resurs 01 Rocket 1.7 19:41:07 21° SE 19:43:56 57° ENE 19:48:17 10° N
STARLINK-1200 3.6 19:41:03 10° WNW 19:45:12 75° NNE 19:47:16 28° ESE
Cosmos 2218 Rocket 4.2 19:39:15 10° N 19:45:21 53° ENE 19:49:44 19° SSE
ATLAS 5 CENTAUR R/B 2.5 19:41:34 10° WSW 19:45:39 50° NW 19:50:19 10° NNE
Cosmos 1892 3.6 19:42:59 10° N 19:46:30 31° ENE 19:47:21 28° E
Cosmos 192 4.5 19:41:51 10° NNW 19:46:46 58° ENE 19:49:32 25° SE
Spot 2 Rocket 4.2 19:44:50 23° ESE 19:47:14 36° ENE 19:51:52 10° N
Cosmos 1825 4.2 19:46:03 10° NE 19:47:58 14° ENE 19:47:58 14° ENE
STARLINK-1192 3.6 19:46:02 10° WNW 19:50:12 80° NNE 19:52:04 32° ESE
Cosmos 1850 Rocket 4.4 19:45:50 10° S 19:50:38 40° ESE 19:55:27 10° NE
SL-24 R/B 3.9 19:47:19 10° N 19:51:16 72° WNW 19:54:56 10° SSW
STARLINK-1244 3.5 19:48:35 10° WNW 19:52:40 82° NNE 19:54:19 34° ESE
CZ-2C R/B 4.4 19:49:35 10° SSW 19:53:59 35° W 19:58:22 10° NNW
STARLINK-1201 3.8 19:51:23 10° WNW 19:54:30 42° SW 19:55:26 32° S
SL-8 Rocket 4.0 19:49:14 10° N 19:55:34 74° E 20:00:36 17° SSE
SAR-Lupe-2 4.2 19:53:07 10° NNE 19:56:18 35° E 19:56:18 35° E
Cosmos 1076 Rocket 3.6 19:52:33 10° N 19:56:47 54° ENE 19:58:25 33° SE
STARLINK-1138 3.5 19:56:01 10° WNW 20:00:11 90° NW 20:01:39 39° ESE
Cosmos 468 Rocket 4.0 19:57:15 10° NNW 20:02:25 65° ENE 20:04:44 32° SE
Cosmos 2181 Rocket 3.9 19:56:42 10° S 20:02:55 77° E 20:09:05 10° NNE
STARLINK-52 4.2 20:00:46 10° W 20:03:50 41° NNW 20:05:56 18° NE
STARLINK-1143 3.5 20:00:58 10° WNW 20:05:07 85° SSW 20:06:23 44° SE
Cosmos 1300 3.3 20:02:30 10° SSW 20:06:16 58° WNW 20:10:03 10° N
ERS-1 Rocket 4.0 20:06:51 26° E 20:07:59 29° ENE 20:12:15 10° N
Meteor 2-10 Rocket 4.2 20:09:02 33° ESE 20:09:47 34° E 20:14:39 10° NNE
STARLINK-1241 3.5 20:05:59 10° WNW 20:10:08 79° SSW 20:11:13 48° SE
Cosmos 2366 rocket 3.9 20:04:10 10° N 20:10:20 76° E 20:14:09 25° SSE
MOS 1 Rocket 3.8 20:06:41 10° N 20:12:07 78° WNW 20:17:33 10° SSW
Cosmos 1959 Rocket 4.4 20:07:06 10° N 20:13:26 82° E 20:17:24 24° SSE
MetOp-B 4.1 20:11:11 32° SSE 20:13:41 70° ENE 20:19:02 10° N
COSMOS 2455 3.8 20:08:15 10° NW 20:13:55 43° WSW 20:18:26 16° S
In-Cosmos 22 Rocket 4.2 20:08:32 10° NNW 20:14:25 90° W 20:17:59 25° S
Cosmos 1356 Rocket 4.0 20:15:14 38° E 20:15:14 38° E 20:18:53 10° NNE
STARLINK-1239 3.6 20:10:57 10° WNW 20:15:05 74° SSW 20:15:58 52° SSE
Cosmos 2082 Rocket 3.9 20:19:02 16° ENE 20:19:02 16° ENE 20:20:49 10° NE
DMSP B5D2-2 4.5 20:13:51 10° N 20:19:01 64° WNW 20:24:12 10° SSW
Cosmos 1570 Rocket 4.3 20:13:54 10° NNW 20:19:10 53° ENE 20:20:40 40° ESE
STARLINK-1240 3.6 20:15:56 10° WNW 20:20:04 68° SW 20:20:46 55° SSE
Cosmos-2242 3.7 20:20:41 37° ENE 20:20:41 37° ENE 20:24:16 10° NNE
Cosmos 1833 Rocket 3.3 20:21:16 34° E 20:21:16 34° E 20:25:58 10° NE
Cosmos 1408 3.2 20:19:01 10° N 20:22:05 41° NE 20:22:05 41° NE
ATLAS CENTAUR R/B 2.3 20:21:16 10° NNW 20:24:45 31° NE 20:24:55 31° NE
STARLINK-1216 3.7 20:20:54 10° WNW 20:25:00 63° SW 20:25:31 57° S
IGS 5A 3.6 20:27:14 53° E 20:27:24 53° ENE 20:31:28 10° N
Abrixas rocket 4.3 20:26:02 10° W 20:27:25 17° WSW 20:27:25 17° WSW
STARLINK-1237 3.7 20:25:54 10° WNW 20:29:58 58° SW 20:30:18 56° SSW
Landsat 7 3.8 20:29:23 52° ESE 20:30:15 62° ENE 20:34:57 10° N
STARLINK-1202 3.9 20:30:53 10° WNW 20:34:56 54° SW 20:35:05 54° SSW
Cosmos 489 Rocket 4.4 20:31:28 10° NNW 20:37:42 76° ENE 20:39:40 46° SE
SL-4 R/B 2.9 20:37:06 10° WNW 20:40:16 34° N 20:40:33 33° NNE
STARLINK-1246 4.2 20:40:54 10° WNW 20:44:40 45° SW 20:44:40 45° SW
COSMOS 2406 3.1 20:40:11 10° SSW 20:45:52 88° ESE 20:51:38 10° NNE
CZ-2C R/B 3.7 20:41:10 10° N 20:46:03 44° WNW 20:50:59 10° SW
RESURS DK-1 2.3 20:44:49 10° NNW 20:48:47 80° NW 20:48:47 80° NW
Cosmos 1741 Rocket 4.3 20:43:52 10° SSW 20:49:10 70° WNW 20:54:31 10° NNE
STARLINK-1224 4.4 20:45:55 10° WNW 20:49:28 41° SW 20:49:28 41° SW
Cosmos 1821 Rocket 4.0 20:44:19 10° N 20:50:41 65° ENE 20:52:05 52° SE
Cosmos 1763 Rocket 3.8 20:45:45 10° NNW 20:50:50 59° WSW 20:52:05 46° SSW
Cosmos 540 Rocket 3.3 20:46:22 10° NNW 20:51:32 72° ENE 20:51:58 67° ESE
Iridium 4 Rocket 3.8 20:51:15 10° NNW 20:55:16 47° W 20:56:07 40° WSW
CARTOSAT-1 3.9 20:56:09 56° NE 20:56:09 56° NE 20:59:53 10° N
Cosmos 1697 Rocket 2.5 20:52:25 10° NNW 20:58:08 79° ENE 20:58:52 67° SE
Cosmos 2058 4.4 20:55:59 10° NNW 20:59:39 31° W 21:00:44 27° WSW
SPOT 1/Viking Rocket 3.5 20:59:28 66° S 21:00:14 82° WSW 21:05:30 10° NNW
USA 234 3.1 20:54:22 10° ENE 21:00:52 63° SE 21:07:21 10° SW
Cosmos 2369 3.5 20:55:30 10° NNW 21:01:12 82° ENE 21:01:50 70° SE
ASTEX 1 4.4 21:02:56 34° NE 21:02:56 34° NE 21:06:38 10° N
Cosmos 2208 Rocket 3.9 20:57:48 10° NNW 21:03:02 82° WSW 21:03:28 74° S
Cosmos 1814 Rocket 3.9 21:03:44 10° NNW 21:09:08 85° WSW 21:09:25 80° S
Cosmos 1766 Rocket 3.8 21:06:26 10° N 21:10:23 67° NNW 21:10:23 67° NNW
Cosmos 1656 4.3 21:06:38 10° NW 21:12:04 48° WSW 21:13:07 43° SW
Terra 2.2 21:13:02 56° NNE 21:13:02 56° NNE 21:17:07 10° N
Cosmos 1455 3.4 21:14:30 41° NW 21:14:30 41° NW 21:17:34 10° N
Okean 3 Rocket 4.0 21:11:29 10° NNW 21:15:32 58° WNW 21:15:32 58° WNW
Cosmos 2151 3.8 21:12:48 10° NNW 21:16:28 48° WNW 21:16:28 48° WNW
SPOT 5 3.1 21:20:00 57° NNW 21:20:00 57° NNW 21:23:28 10° NNW
Cosmos 2360 Rocket 4.3 21:17:23 10° N 21:20:25 14° NE 21:22:05 13° ENE
Resurs 01 Rocket 4.1 21:18:41 12° WSW 21:20:48 16° W 21:23:32 10° NW
SL-16 R/B 3.6 21:16:59 10° N 21:21:43 26° NE 21:22:11 26° NE
Cosmos 1825 3.7 21:20:18 10° NNW 21:22:48 34° NW 21:22:48 34° NW
Cosmos 2322 Rocket 3.7 21:23:19 10° N 21:27:55 25° NE 21:28:20 24° NE
Cosmos 1980 Rocket 2.2 21:23:09 10° NNW 21:28:34 75° NE 21:28:34 75° NE
Cosmos 841 Rocket 4.1 21:25:55 10° NNW 21:30:59 49° WSW 21:31:00 49° WSW
CZ-4C R/B 2.9 21:25:47 10° NW 21:33:00 85° NE 21:34:22 65° SE
ERS-1 Rocket 3.9 21:46:51 40° W 21:46:51 40° W 21:51:21 10° NNW
Meteor 2-3 Rocket 3.9 21:42:11 10° NNW 21:47:32 70° WNW 21:47:32 70° WNW
Cosmos 2221 4.4 21:58:58 26° N 21:58:58 26° N 22:00:57 10° N
Cosmos 2082 Rocket 2.5 22:00:48 62° NNW 22:00:48 62° NNW 22:05:56 10° NNE
Cosmos 2278 4.4 21:56:29 10° NW 22:01:12 47° W 22:01:12 47° W
ATLAS CENTAUR R/B 4.0 22:00:19 10° WNW 22:01:06 14° WNW 22:01:06 14° WNW
Cosmos 1833 Rocket 3.8 22:02:50 31° W 22:04:44 41° NW 22:10:05 10° NNE
Mayak 0.9 22:11:54 10° N 22:13:33 23° N 22:13:33 23° N
Cosmos 2344 4.4 22:16:11 10° NW 22:25:54 78° SW 22:28:38 60° SSE
Cosmos 1727 Rocket 4.3 22:31:47 61° NNE 22:31:47 61° NNE 22:36:57 10° N
USA 234 3.8 22:37:30 10° NE 22:43:50 54° NNW 22:50:10 10° W
Cosmos 2100 Rocket 4.4 22:41:57 10° N 22:46:54 58° N 22:46:54 58° N
Terra 4.3 22:51:55 15° WNW 22:51:55 15° WNW 22:53:35 10° NW
Cosmos 2173 Rocket 4.5 22:46:07 10° N 22:50:49 55° N 22:50:49 55° N
Cosmos 2360 Rocket 3.3 23:00:01 10° NNW 23:03:50 42° N 23:03:50 42° N
SL-16 R/B 3.4 23:00:39 10° NNW 23:04:03 36° NW 23:04:03 36° NW
Cosmos 1980 Rocket 4.4 23:08:33 10° WNW 23:10:21 15° WNW 23:10:21 15° WNW
Cosmos 2322 Rocket 3.5 23:06:52 10° NNW 23:10:09 35° NW 23:10:09 35° NW
CZ-4C R/B 4.3 23:15:07 10° WNW 23:19:33 25° W 23:19:33 25° W
Cosmos 2237 Rocket 4.4 23:25:29 10° N 23:29:20 18° NE 23:31:20 16° ENE
Cosmos 2333 Rocket 3.4 23:25:57 10° NNW 23:30:09 37° NNE 23:30:09 37° NNE
MOS 1-B Rocket 4.5 23:31:53 10° NNE 23:37:17 68° N 23:37:17 68° N
